Weather in Paxta

Uzbekistan     41°01′03″N   68°56′27″E
temp.,
°C
wind,
m/s
gust,
m/s
humid.,
%
clouds,
%
prec.,
mm/h
press.,
hPa
HPBL,
m
7 may, fri
fri723:00+18ese22737 1.4 101514
02:00+18e336878 0.0 101428
05:00+18e2269100 0.0 101533
08:00+20ese126373 0.1 1015109
11:00+27se113810 0.1 10151415
14:00+29nnw32335 0.0 10132291
17:00+29nw433569 0.0 10131815
20:00+24n224392 0.0 101418
8 may, sat
sat823:00+22ene3352100 0.0 101439
02:00+21ene345449 0.0 101347
05:00+20ene225455 0.0 101419
08:00+24ne2244100 0.0 1014205
11:00+30n332875 0.0 10141747
14:00+32nnw43243 0.0 10122312
17:00+31nnw54255 0.0 10112338
20:00+25ne463817 0.0 101287
9 may, sun
sun923:00+23e334872 0.0 101136
02:00+21ene335112 0.0 101023
05:00+20e225263 0.0 101113
08:00+24nnw4546100 0.0 1013491
11:00+26n4338100 0.0 10141084
14:00+30nw323192 0.0 10121727
17:00+27nnw653879 0.0 10121017
20:00+23n495068 0.0 1013228
10 may, mon
mon1023:00+21n355619 0.0 101279
02:00+19n386098 0.0 1010166
05:00+18n3759100 0.0 1010148
08:00+22n4646100 0.0 1012403
11:00+26n5634100 0.0 1011926
14:00+28nnw662476 0.0 10101230
17:00+27nnw6624100 0.0 10101094
20:00+22n4836100 0.0 1012180
11 may, tue
tue1123:00+19n4639100 0.0 101298
02:00+16nnw3545100 0.0 101178
05:00+15nw2250100 0.0 101330
08:00+18w1245100 0.0 1014280
11:00+24nnw3433100 0.0 10131136
14:00+28nnw5526100 0.0 10122098
17:00+27nnw662499 0.0 10121931
20:00+21n47385 0.0 101387